Regional Weather Roundup
Issued by NWS

Home | Current Version | Previous Version | Graphics & Text | Print | Product List | Glossary Off
Versions: 1 2 3 4 5 6 7 8 9 10 11 12 13 14 15 16 17 18 19 20 21 22 23 24 25 26 27 28 29 30 31 32 33 34 35 36 37 38 39 40 41 42 43 44 45 46 47 48 49 50

000
ASUS43 KMKX 301520
RWRWI

WISCONSIN REGIONAL WEATHER ROUNDUP
NATIONAL WEATHER SERVICE MILWAUKEE/SULLIVAN WI
1000 AM CDT MON MAR 30 2015

NOTE: "FAIR" INDICATES FEW OR NO CLOUDS BELOW 12,000 FEET WITH NO
SIGNIFICANT WEATHER AND/OR OBSTRUCTIONS TO VISIBILITY.

WIZ001-002-006>008-014>016-023>028-301600-
NORTHWEST WISCONSIN

CITY           SKY/WX    TMP DP  RH WIND       PRES   REMARKS
SUPERIOR ARPT  MOSUNNY   42  30  62 S6        29.94R
ASHLAND        SUNNY     46  28  49 SW6       29.93S
HAYWARD        MOSUNNY   41  27  57 CALM      29.94R
SIREN          MOSUNNY   43  28  56 CALM      29.95R
CUMBERLAND     MOSUNNY   41  30  65 CALM      29.95R
RICE LAKE      MOSUNNY   42  29  59 CALM      29.97S
CHETEK         MOSUNNY   42  30  61 CALM      29.95S
LADYSMITH      MOSUNNY   43  29  58 CALM      29.95F
EAU CLAIRE     PTSUNNY   44  29  55 SW6       29.96S
MENOMONIE      PTSUNNY   45  30  55 W3        29.97R
NEW RICHMOND   CLOUDY    39  29  68 CALM      29.96F
OSCEOLA        LGT RAIN  41  32  70 CALM      29.99S
$$

WIZ003>005-009-010-017-018-301600-
NORTH CENTRAL WISCONSIN

CITY           SKY/WX    TMP DP  RH WIND       PRES   REMARKS
MANITOWISH WTR SUNNY     38  26  59 NW10      29.89S WCI  32
ARBOR VITAE    SUNNY     41  27  57 NW8       29.90R
WOODRUFF       SUNNY     41  27  57 NW8       29.90R
RHINELANDER    SUNNY     41  26  55 NW12G20   29.90S
EAGLE RIVER    SUNNY     39  24  55 NW13G22   29.88S WCI  32
LAND O LAKES   SUNNY     39  22  49 NW8G22    29.89R WCI  34
PHILLIPS       MOSUNNY   42  27  56 NW7       29.92S
TOMAHAWK       SUNNY     43  25  48 NW9       29.92S
MEDFORD        SUNNY     43  27  52 NW6       29.93S
MERRILL        SUNNY     45  26  46 NW13      29.92F
$$

WIZ029-030-035-036-043>047-301600-
CENTRAL WISCONSIN

CITY           SKY/WX    TMP DP  RH WIND       PRES   REMARKS
WAUSAU         SUNNY     45  26  47 NW14      29.92S
MOSINEE        SUNNY     45  28  53 NW9       29.95S
MARSHFIELD     SUNNY     46  30  53 W9        29.95F
STEVENS POINT  SUNNY     44  26  49 NW9       29.95F
WAUPACA        SUNNY     50  28  42 NW8G16    29.96S
WAUTOMA        SUNNY     49  29  46 NW10      29.97S
WISC RAPIDS    SUNNY     47  28  47 W8        29.97F
CAMP DOUGLAS   MOSUNNY   48  32  53 W12       29.97F
$$

WIZ011>013-019>022-031-037>040-048>050-301600-
NORTHEAST WISCONSIN

CITY           SKY/WX    TMP DP  RH WIND       PRES   REMARKS
ANTIGO         SUNNY     41  28  59 NW10      29.91R
SHAWANO        SUNNY     48  28  45 W12G17    29.92R
OCONTO         SUNNY     45  29  53 NW9       29.90R
STURGEON BAY   SUNNY     43  28  56 W13       29.92R
GREEN BAY      SUNNY     45  31  58 W15       29.93R
MANITOWOC      SUNNY     46  31  55 W14G22    29.94R
APPLETON       MOSUNNY   45  27  49 NW14      29.95R
CLINTONVILLE   SUNNY     46  27  46 W10G16    29.93R
OSHKOSH        SUNNY     46  30  53 W10       29.96R
$$

WIZ032>034-041-042-053>061-301600-
SOUTHWEST WISCONSIN

CITY           SKY/WX    TMP DP  RH WIND       PRES   REMARKS
LA CROSSE      MOSUNNY   48  30  49 S9        29.98F
SPARTA         MOSUNNY   46  28  49 W5        29.98F
VIROQUA        MOSUNNY   45  31  58 SW9       29.99F
BOSCOBEL       SUNNY     47  29  49 SW8       30.03F
PRAIRIE DU CHI SUNNY     43  28  56 CALM      30.03F
PLATTEVILLE    SUNNY     46  32  57 SW9       30.04F
$$

WIZ056-057-062-063-064-067-068-301600-
SOUTH CENTRAL WISCONSIN

CITY           SKY/WX    TMP DP  RH WIND       PRES   REMARKS
REEDSBURG      MOSUNNY   47  32  56 SW9       29.99S
BARABOO/DELLS  PTSUNNY   47  28  46 W6        29.98F
LONE ROCK      PTSUNNY   47  30  51 W8        30.02F
MINERAL POINT  MOSUNNY   45  30  57 W6        30.03S
MADISON        PTSUNNY   47  30  51 W6        30.01S
MIDDLETON      MOSUNNY   51  28  40 W9        30.01F
WATERTOWN      CLOUDY    43  31  62 W8        30.01R
MONROE         MOSUNNY   45  32  61 SW10      30.03S
JANESVILLE     MOSUNNY   48  30  49 W8        30.03F
$$

WIZ051-052-058>065-066-070>072-301600-
SOUTHEAST WISCONSIN

CITY           SKY/WX    TMP DP  RH WIND       PRES   REMARKS
MILWAUKEE      MOSUNNY   49  26  41 W12       30.01R
WAUKESHA       PTSUNNY   45  28  53 W14G22    30.01R
MILWAUKEE/TIMM SUNNY     48  27  43 W15       30.00S
RACINE         MOSUNNY   48  28  46 W12G21    30.03R
BURLINGTON     MOSUNNY   46  29  52 W12       30.02S
KENOSHA        MOSUNNY   48  32  53 W13       30.02R
FOND DU LAC    PTSUNNY   48  29  47 W12G21    29.97S
SHEBOYGAN      SUNNY     46  29  51 W16G24    29.96R
WEST BEND      MOSUNNY   46  27  46 W16G22    29.98R
JUNEAU         CLOUDY    43  33  67 SW8       30.01S
$$

LSZ147-162-301600-
LAKE SUPERIOR

STATION/POSITION TIME  TEMP    WIND        PRES    WAVE
                       AIR SEA DIR/SP/G            HT/PER
                 (UTC) (F)     (DEG/KT/KT) (MB)    (FT/S)
DEVILS ISLAND    1500   36     250/ 11/ 14 1013.8R
PORT WING        1440   40     270/  8/ 10 1013.5S
SAXON HARBOR     1440   42     290/  5/ 12 1013.2S
$$

LMZ867-665-643>646-301600-
LAKE MICHIGAN

STATION/POSITION TIME  TEMP    WIND        PRES    WAVE
                       AIR SEA DIR/SP/G            HT/PER
                 (UTC) (F)     (DEG/KT/KT) (MB)    (FT/S)
NORTHPORT PIER   1400   35     340/ 10/ 21 1011.5R
SISTER BAY       1402   43     310/ 12/ 13   N/A
KEWAUNEE LAKESHO 1418   42     300/ 13/ 20 1011.7R
SHEBOYGAN LAKESH 1500   46     280/ 17/ 22 1015.0R
PORT WASHINGTON  1400   46     280/ 11/ 20 1015.2R
MILWAUKEE LAKESH 1500   48     290/ 12/ 16   N/A
KENOSHA   LAKESH 1500   47     260/ 12/ 19 1016.9R
$$

TC  - TEMPERATURE IN CELSIUS
VSB - VISIBILITY IN STATUTE MILES
WCI - WIND CHILL INDEX
HX  - HEAT INDEX




USA.gov is the U.S. government's official web portal to all federal, state and local government web resources and services.